Location: Gebenbach
(49.5378°N, 11.8735°E)
Time: 03:03:30
(UTC+00:00)

Cosmos 44 Rocket - Pass Details

Date: 29 October 2020
Orbit: 642 x 748 km, 65.1° (Epoch: 24 November)

Event Time Altitude Azimuth Distance (km) Brightness Sun altitude
Rises 18:13:08 0° 210° (SSW) 2,989 6.9 -22.9°
Reaches altitude 10° 18:15:25 10° 208° (SSW) 2,094 6.0 -23.3°
Enters shadow 18:19:57 70° 146° (SE) 732 3.2 -24.0°
